Volver al catálogo

ARVAKER-2

ActivoCienciaSSO
NORAD 64567·PAYLOAD·🇳🇴 Norway

Lanzado Jun 23, 2025 desde Vandenberg Space Force Base

Loading…

Próximos Pases (próximas 24 horas)

TLE

ActualizadoSource: Space-Track

Época: Sep 14, 2026, 14:20 UTC

1 64567U 25135AR  26257.59753688  .00001860  00000-0  18054-3 0  9993
2 64567  97.7810  10.8130 0002192  56.3990 303.7438 14.93851306 67226

Sigue ARVAKER-2 en tiempo real con AllMySat

Download on the App Store